Regional Weather Roundup
Issued by NWS

Home | Current Version | Previous Version | Graphics & Text | Print | Product List | Glossary On
Versions: 1 2 3 4 5 6 7 8 9 10 11 12 13 14 15 16 17 18 19 20 21 22 23 24 25 26 27
000
ASUS45 KSLC 181210
RWRUT

UTAH REGIONAL WEATHER ROUNDUP
NATIONAL WEATHER SERVICE SALT LAKE CITY UT
600 AM MDT FRI APR 18 2014

UTZ001>011-023>025-181300-

NORTHERN UTAH

CITY           SKY/WX    TMP DP  RH WIND       PRES   REMARKS
HILL AFB       CLOUDY    63  22  20 S18G26    29.81F
LOGAN          CLOUDY    54  32  43 NE8       29.82S
OGDEN          CLOUDY    64  24  21 S18G32    29.79S
PROVO AIRPORT  CLOUDY    55  30  38 SE16      29.88F
SALT LAKE CITY CLOUDY    64  24  21 S20       29.81F
VERNAL         PTCLDY    39  26  59 W7        29.98S WCI  34
WENDOVER       CLOUDY    61  32  33 NE7       29.83R
HEBER CITY     CLOUDY    50  27  40 SW5       29.92F
WEST JORDAN    CLEAR     59  32  36 SE18      29.86S

$$

UTZ012>022-026-027-181300-

SOUTHERN UTAH

CITY           SKY/WX    TMP DP  RH WIND       PRES   REMARKS
BRYCE CANYON   MOCLDY    30  22  72 CALM      30.08F
CEDAR CITY     MOCLDY    53  16  23 S13       29.96R
MILFORD        CLOUDY    54  19  25 SW12      29.93R
MOAB/CYNLANDS  CLEAR     50  23  34 CALM      29.96S
PRICE          MOCLDY    45  21  38 NE9       30.01S
ST GEORGE      CLOUDY    61  19  20 S3        29.89R

$$

REGIONAL REPORTS     COLORADO/ARIZONA

CITY           SKY/WX    TMP DP  RH WIND       PRES   REMARKS
CRAIG, CO      CLEAR     38  25  59 VRB6      30.05S WCI  33
GRAND JUNCTION PTCLDY    45  26  47 E13       30.00F
RIFLE          CLEAR     36  26  67 SW3       30.08S
MONTROSE       PTCLDY    40  27  59 S6        30.09F
CORTEZ         CLEAR     31  23  72 N3        30.09F
PAGE, AZ       MOCLDY    58  22  24 SW6       29.95R
GRAND CANYON   CLOUDY    31  15  52 E3        30.07S
KINGMAN        CLOUDY    58  18  21 SE10      29.89F
FLAGSTAFF      MOCLDY    35  20  54 CALM      30.09S

$$

REGIONAL REPORTS    NEVADA/IDAHO/WYOMING

CITY           SKY/WX    TMP DP  RH WIND       PRES   REMARKS
LAS VEGAS, NV  CLOUDY    72  22  15 S9        29.75F
ELY            PTCLDY    44  20  38 S13       29.93S
ELKO           CLOUDY    51  41  68 CALM      29.91R
POCATELLO, ID  CLOUDY    48  41  76 SW23G31   29.89R
BURLEY         LGT RAIN  45  42  89 SW13      29.90F
EVANSTON, WY   MOCLDY    48  24  39 SW13      29.93F
ROCK SPRINGS   CLOUDY    48  21  34 SW10      29.95S

$$



USA.gov is the U.S. government's official web portal to all federal, state and local government web resources and services.